Theta_e
288 287 287 286 286 285 285 284 284 283 282 282 282 281 281 281 281 281 281 280 280 281 281 281 280 279 280 280 280 280 281 280 280 279 278 278 278 277 278 278 277 278 278 280 280 281 281 282 282 282 282 282 283 283 284 284 285 285 285 285 286 286 286 287 287 287 287 287 288 288 288 288 288 288 288 288 288 288 288 287 287 287 287 286 286
288 287 287 286 285 285 284 284 284 283 282 281 281 281 280 280 280 280 280 280 280 280 280 279 279 278 278 278 278 279 279 279 278 278 277 277 278 277 277 276 276 276 277 279 279 279 281 281 280 280 280 281 281 281 282 283 284 284 284 284 284 285 285 286 286 286 287 287 287 287 287 288 288 288 289 289 288 288 287 287 287 286 286 286 286
287 287 287 286 285 285 284 284 283 283 282 281 280 280 280 280 280 280 279 279 278 278 277 277 277 277 277 277 277 278 278 278 277 277 277 277 277 276 275 275 275 275 276 277 277 278 279 278 277 277 277 278 279 280 281 282 282 282 282 283 283 284 284 285 285 286 286 286 286 286 286 287 287 288 289 289 289 288 287 287 286 286 286 286 286
287 287 287 286 285 285 284 283 283 282 281 280 279 279 279 278 278 278 278 278 277 276 275 276 276 275 275 275 276 276 277 277 277 276 276 276 276 275 273 274 274 274 275 276 276 276 276 275 274 275 275 276 277 278 278 279 280 281 281 281 281 282 283 283 284 284 285 285 285 285 286 286 286 287 288 288 288 287 287 287 286 286 286 286 285
287 286 286 286 285 284 284 283 283 282 281 280 278 278 277 277 277 277 277 276 276 275 275 275 275 274 274 275 275 276 276 276 276 276 276 275 274 273 273 273 273 274 274 274 275 275 274 273 273 273 274 275 275 276 277 278 278 279 278 278 279 280 281 281 282 283 283 284 284 284 285 285 285 286 286 286 287 287 287 287 287 286 286 285 285
287 286 286 286 285 284 283 282 281 281 280 279 277 276 276 276 276 276 276 276 275 275 274 274 274 274 274 274 275 275 276 276 276 275 275 274 274 273 273 273 273 273 273 273 274 274 272 272 272 273 273 274 274 275 276 276 277 276 276 276 277 277 278 279 280 281 282 282 283 284 284 284 285 285 284 284 286 286 286 287 287 286 286 285 285
287 287 286 286 285 284 282 280 279 279 278 278 277 276 276 275 275 275 275 275 275 274 273 273 273 273 274 274 274 275 275 275 275 274 274 274 273 272 272 272 272 273 273 272 273 273 272 271 271 272 272 272 273 274 274 275 275 274 274 275 275 276 276 277 278 279 280 280 282 282 283 283 284 284 284 283 284 284 285 286 286 286 286 286 286
287 286 286 285 284 282 281 279 278 277 277 277 277 276 276 275 275 275 275 274 274 274 273 273 273 273 273 274 274 274 275 275 274 274 273 273 272 272 272 272 272 272 272 272 272 272 272 271 271 271 271 271 272 273 273 273 273 273 273 273 274 274 275 275 276 276 277 278 279 280 281 282 283 283 283 283 283 283 284 284 285 285 286 286 286
286 286 285 283 282 281 279 278 277 277 277 277 277 276 276 275 275 275 274 274 273 273 272 272 272 273 273 273 273 273 274 274 274 273 273 272 272 271 271 272 272 272 272 271 271 271 271 270 270 270 270 270 271 271 271 271 272 272 272 272 272 273 273 274 274 275 276 277 277 278 279 280 281 282 282 282 282 282 282 283 284 284 285 285 285
285 285 283 282 281 280 279 278 277 277 276 276 277 276 276 275 275 275 274 274 273 273 272 272 272 272 272 272 272 273 273 273 273 273 272 272 271 271 271 271 271 271 271 271 271 271 270 270 270 270 269 270 270 270 270 270 271 271 271 271 271 271 272 272 273 274 274 275 275 276 277 278 279 280 281 282 282 282 282 282 283 284 284 284 284
285 284 283 282 281 280 279 279 278 277 277 277 277 277 276 276 275 275 275 274 273 272 272 271 271 271 271 271 271 272 272 272 272 272 271 271 270 270 270 270 270 271 270 270 270 270 269 269 269 269 269 269 269 269 269 269 270 270 270 270 270 271 271 271 272 272 273 274 274 275 276 276 277 278 279 280 281 281 282 282 282 283 283 283 284
285 284 284 283 281 281 280 279 278 278 277 277 277 277 276 275 275 275 274 274 273 272 272 271 271 271 271 271 271 271 272 272 272 271 271 270 270 270 269 270 270 270 270 270 270 269 269 269 269 268 268 269 268 268 269 269 269 269 269 270 270 270 270 270 271 271 272 273 273 274 275 275 276 277 278 279 279 280 280 281 281 282 282 282 283
286 285 285 284 282 281 281 280 279 278 278 277 276 277 276 275 275 275 274 274 273 272 272 271 270 270 270 270 270 270 271 271 271 271 270 270 269 269 269 269 269 269 269 269 269 268 268 268 268 268 268 268 268 268 268 268 268 268 269 269 269 269 269 270 270 271 271 272 272 273 274 274 275 275 276 276 277 277 278 279 280 281 281 281 282
287 286 286 284 282 281 281 280 279 278 278 277 276 276 276 275 274 274 274 273 272 272 271 271 270 270 270 269 270 270 270 271 271 270 270 269 268 268 268 269 269 269 268 268 268 268 267 267 267 267 267 267 267 267 267 267 267 268 268 268 268 268 269 269 269 270 270 271 272 272 272 273 273 274 274 275 275 276 276 277 278 279 279 280 281
288 287 285 284 282 282 281 280 279 278 277 277 276 275 275 274 274 273 273 273 272 272 271 271 270 270 269 269 269 269 269 270 270 270 269 269 268 268 268 268 268 268 268 268 267 267 267 267 267 267 267 266 267 267 267 267 267 267 267 267 267 268 268 268 269 269 269 270 270 271 271 271 272 272 273 274 274 275 276 276 277 277 277 278 279
288 286 285 284 282 282 281 279 278 277 277 276 275 275 275 274 273 273 272 272 272 272 271 270 270 269 269 269 269 269 269 269 269 270 269 268 267 267 267 267 267 267 267 267 267 267 266 266 266 266 266 266 266 266 266 266 266 266 266 267 267 267 267 268 268 268 269 269 269 270 270 270 271 271 272 272 273 274 275 275 276 277 277 277 278
289 287 285 284 283 282 281 279 278 277 277 276 275 275 274 274 273 273 272 271 271 271 271 270 270 269 269 268 268 268 268 268 268 269 268 268 267 267 267 267 267 267 267 266 266 266 266 266 266 266 266 266 266 266 266 266 266 266 266 266 266 267 267 267 267 268 268 268 269 269 269 269 270 270 270 271 272 272 273 273 274 276 277 277 277
289 288 287 285 284 283 281 280 279 277 276 276 275 275 274 273 273 272 272 271 270 270 270 270 269 269 269 268 268 268 268 268 268 268 268 267 267 267 267 266 266 266 266 266 266 266 266 266 265 265 265 265 265 265 265 265 265 266 266 266 266 266 266 267 267 267 267 268 268 268 268 269 269 269 269 270 270 271 271 272 272 273 274 276 277
288 288 287 286 284 283 282 280 278 277 276 276 275 274 274 273 273 272 272 271 270 270 270 269 269 269 268 268 268 267 267 267 267 267 267 267 267 266 266 266 266 266 265 265 265 265 265 265 265 265 265 265 265 265 265 265 265 265 265 266 266 266 266 266 267 267 267 267 267 267 268 268 268 268 269 269 269 270 270 270 271 272 272 273 275
287 287 287 286 285 284 282 280 279 277 276 275 275 274 274 273 273 272 271 271 270 269 269 269 269 268 268 268 267 267 267 267 267 267 267 266 266 266 266 266 265 265 265 265 265 265 265 265 265 265 265 265 264 265 265 265 265 265 265 265 265 266 266 266 266 266 266 266 267 267 267 267 267 267 268 268 268 269 269 269 270 271 271 272 273
287 287 288 287 286 285 282 280 278 277 276 275 275 274 274 273 272 272 271 271 270 269 269 269 268 268 268 267 267 267 267 267 266 266 266 266 266 266 265 265 265 265 265 264 264 264 264 264 264 264 264 264 264 264 264 264 264 264 265 265 265 265 265 265 265 266 266 266 266 266 266 266 267 267 267 267 267 267 268 268 269 269 270 271 272
288 288 288 287 286 284 282 280 278 277 276 275 275 274 273 273 272 271 271 270 270 269 269 268 268 268 267 267 267 267 266 266 266 266 266 266 265 265 265 265 264 264 264 264 264 264 264 264 264 264 263 263 264 264 264 264 264 264 264 264 264 264 264 265 265 265 265 265 265 266 266 266 266 266 266 266 266 267 267 267 268 268 269 270 271
288 288 287 287 285 284 282 280 279 278 277 276 275 274 273 273 272 271 271 270 270 269 268 268 268 267 267 267 266 266 266 266 266 266 265 265 265 265 265 264 264 264 264 264 264 264 263 263 263 263 263 263 263 263 263 263 263 263 263 264 264 264 264 264 264 264 265 265 265 265 265 265 266 266 266 266 266 266 267 267 267 268 268 269 269
288 288 287 286 285 284 282 280 279 278 277 276 275 274 273 273 272 271 270 270 269 269 268 268 268 267 267 266 266 266 266 266 266 265 265 265 265 264 264 264 264 263 263 263 263 263 263 263 263 263 263 263 263 263 263 263 263 263 263 263 263 263 263 263 264 264 264 264 264 264 265 265 265 265 265 266 266 266 267 267 267 268 268 268 269
288 287 287 286 285 284 282 281 279 278 277 276 275 274 274 273 272 271 270 269 269 269 268 268 267 267 266 266 266 266 266 265 265 265 265 264 264 264 264 263 263 263 263 263 263 263 262 262 262 262 262 262 262 262 262 262 262 262 262 262 262 262 263 263 263 263 263 263 264 264 264 264 264 265 265 265 266 266 266 267 267 267 268 268 268
287 286 286 286 285 284 282 281 280 278 277 276 275 274 273 272 271 270 270 269 269 268 268 267 267 267 266 266 266 266 265 265 265 265 264 264 264 263 263 263 263 263 262 262 262 262 262 262 262 261 261 261 261 261 261 261 261 261 262 262 262 262 262 262 262 262 263 263 263 263 264 264 264 264 265 265 265 266 266 266 267 267 267 268 268
287 286 286 285 285 284 282 281 280 278 276 276 275 274 273 272 271 270 269 269 268 268 267 267 267 266 266 266 266 265 265 265 264 264 264 264 263 263 263 263 262 262 262 262 262 262 261 261 261 261 261 261 261 261 261 261 261 261 261 261 261 261 261 261 262 262 262 262 263 263 263 264 264 264 265 265 265 265 266 266 266 267 267 267 267
287 286 285 284 284 284 283 281 280 278 276 276 275 274 273 272 271 270 269 268 268 268 267 267 266 266 266 266 265 265 265 264 264 264 263 263 263 262 262 262 262 261 261 261 261 261 261 261 260 260 260 260 260 260 260 260 260 260 260 260 260 260 261 261 261 262 262 263 263 263 264 264 265 265 265 266 266 266 266 266 266 266 267 267 267
286 285 285 284 283 283 283 281 280 278 276 275 274 273 272 271 270 269 269 268 268 267 267 266 266 266 265 265 265 265 264 264 264 263 263 263 262 262 262 261 261 261 261 260 260 260 260 260 259 259 259 259 259 259 259 259 259 259 260 260 260 261 261 262 262 263 263 264 264 264 265 265 266 266 266 267 267 267 266 266 266 267 267 267 267
286 285 284 284 283 283 282 281 279 277 276 275 274 273 272 271 270 269 268 268 267 267 267 266 266 265 265 265 264 264 264 263 263 263 262 262 262 261 261 261 260 260 259 259 259 259 259 259 259 258 258 258 258 258 259 259 260 261 261 262 262 263 263 263 264 264 265 265 265 266 266 267 267 267 268 268 268 268 267 267 267 267 267 267 267
285 284 284 283 283 282 281 280 278 277 276 275 273 272 271 270 269 268 268 267 267 267 266 266 265 265 265 264 264 263 263 263 262 262 262 261 261 261 260 260 259 259 259 259 258 258 258 258 258 258 257 257 257 258 259 260 261 262 263 264 264 264 265 265 265 266 266 267 267 267 267 268 268 268 268 269 269 269 269 269 269 269 268 268 268
285 284 283 282 282 281 280 279 278 276 275 274 273 272 270 269 269 268 267 267 266 266 266 265 265 264 264 264 263 263 263 262 262 262 261 261 260 260 259 259 259 258 258 258 258 258 258 257 257 257 257 257 257 258 259 260 262 263 264 264 264 264 265 265 266 267 267 267 268 268 268 269 269 269 269 269 270 270 270 270 270 270 270 270 270
284 283 282 282 281 280 280 278 277 275 274 273 272 271 270 269 268 267 267 266 266 265 265 265 264 264 264 263 263 263 262 262 261 261 260 260 260 259 259 258 258 258 258 257 257 257 257 257 257 257 257 257 257 258 259 260 262 263 263 264 264 264 265 266 266 267 267 268 268 269 269 269 270 270 270 270 271 271 271 270 270 270 271 271 271
284 283 282 281 281 280 279 278 276 275 273 272 271 270 269 268 267 267 266 266 265 265 265 264 264 264 263 263 262 262 262 261 261 260 260 260 259 259 258 258 258 257 257 257 257 257 257 257 257 257 257 257 257 258 259 260 262 263 263 264 264 265 266 266 267 267 267 268 268 269 269 269 270 270 270 270 271 271 271 271 271 271 271 270 270
283 282 282 281 280 279 278 277 276 274 272 271 270 269 268 267 267 266 266 265 265 265 264 264 264 263 263 262 262 261 261 261 260 260 259 259 258 258 258 257 257 257 257 257 257 257 257 257 257 257 257 257 257 258 259 261 262 262 263 264 264 265 266 266 266 267 267 268 268 268 269 269 270 270 270 270 270 271 271 271 271 271 270 270 270
282 282 281 281 280 279 277 276 274 273 271 270 269 268 268 267 266 266 265 265 264 264 264 263 263 263 262 262 261 261 261 260 260 259 259 258 258 257 257 257 257 257 257 257 257 257 257 257 257 257 257 257 257 258 259 261 262 262 263 264 264 265 265 266 266 267 267 267 268 268 269 269 269 269 269 269 270 271 271 272 271 271 270 270 270
282 281 281 280 279 278 276 275 273 271 270 269 269 268 267 266 266 265 265 264 264 264 263 263 263 262 262 261 261 260 260 259 259 259 258 258 257 257 257 257 256 256 256 256 256 256 256 257 257 257 257 257 257 258 259 261 262 262 263 263 264 265 265 266 266 266 267 267 268 268 268 269 269 269 269 269 270 271 271 272 272 271 271 270 270
281 280 280 279 278 276 274 273 272 270 270 269 268 267 267 266 266 265 265 264 264 263 263 263 262 262 261 261 260 260 259 259 258 258 258 257 257 257 256 256 256 256 256 256 256 256 257 257 257 257 257 257 257 258 259 260 261 262 263 263 264 265 265 265 266 266 266 267 267 268 268 268 268 268 268 269 270 271 271 271 271 271 271 271 271
281 279 279 278 276 274 273 272 271 270 269 268 268 267 266 266 265 265 264 264 263 263 263 262 262 261 261 260 260 259 259 258 258 258 257 257 256 256 256 256 256 256 256 256 256 257 257 257 257 257 257 257 257 258 259 260 261 262 263 263 264 264 265 265 265 266 266 267 267 267 268 268 268 268 268 269 270 270 271 271 271 271 271 271 271
281 279 278 276 275 273 272 271 270 269 269 268 267 267 266 265 265 264 264 263 263 263 262 262 261 260 260 260 259 259 259 258 258 257 257 256 256 256 256 256 256 256 256 256 256 256 256 256 256 257 257 257 257 258 259 260 261 262 263 264 264 264 264 265 265 265 266 266 266 266 267 267 267 267 268 268 270 270 270 271 271 271 271 271 271
280 279 277 275 273 272 271 271 270 269 269 268 267 266 266 265 264 264 263 263 263 262 261 261 260 260 260 259 259 259 258 258 257 257 256 256 256 255 255 255 255 255 255 255 256 256 256 256 256 257 257 257 258 258 259 260 261 262 263 264 264 264 264 264 265 265 266 266 265 266 266 266 266 266 267 268 269 270 270 270 270 270 271 272 272
279 278 276 275 273 272 271 270 270 269 268 267 266 266 265 265 264 264 263 263 262 262 261 260 260 260 260 259 259 259 258 257 257 256 256 255 255 255 255 255 255 255 255 255 255 255 255 256 256 257 257 258 259 259 259 260 261 262 262 263 264 264 264 264 265 265 265 265 265 265 265 265 265 266 267 268 269 269 269 269 269 270 271 271 272
278 277 276 275 273 272 271 270 269 268 268 267 266 265 265 264 264 263 263 262 262 261 261 260 260 259 259 259 258 258 257 257 256 256 255 255 255 255 255 255 255 255 255 255 256 256 256 256 257 257 258 259 259 259 260 260 260 261 262 263 263 263 264 264 264 264 264 264 264 264 264 264 265 266 267 267 268 268 268 268 268 269 270 271 272
277 276 276 274 273 272 271 270 269 268 267 266 266 265 264 264 263 263 262 262 261 261 260 260 259 259 258 258 258 257 257 256 256 256 255 255 255 255 255 255 255 255 255 256 256 257 257 257 258 258 258 259 259 259 260 260 260 261 261 262 263 263 263 263 263 263 263 263 264 264 264 264 265 265 266 266 266 266 266 267 267 267 268 270 272
277 276 275 274 272 271 270 269 269 268 267 266 265 265 264 263 263 262 262 261 261 260 259 259 259 258 258 257 257 257 256 256 256 255 255 255 255 255 255 255 256 256 256 256 257 257 257 257 258 258 259 259 259 259 260 260 260 260 260 261 262 262 262 262 262 263 263 263 263 264 263 263 264 264 264 264 264 264 265 265 265 266 266 268 270
276 275 274 273 272 270 269 268 268 267 266 266 265 264 263 263 262 262 261 261 260 259 259 258 258 258 257 257 257 256 256 256 256 256 255 255 255 255 255 256 256 256 256 257 257 257 257 257 258 258 259 259 259 259 259 259 259 260 260 260 260 260 261 261 262 262 262 262 262 262 262 262 262 263 263 263 263 263 263 263 264 264 265 266 267
274 273 273 272 271 270 269 268 267 267 266 266 265 264 263 262 262 261 261 260 259 259 258 258 258 257 257 257 257 256 256 256 256 256 256 256 256 256 256 256 256 256 256 257 257 257 257 258 258 258 259 259 259 259 259 259 259 259 259 260 260 260 261 261 261 262 262 262 261 261 261 261 261 261 261 261 262 262 262 262 262 262 263 264 265
273 272 272 271 270 269 268 267 267 266 266 265 264 264 263 262 262 261 260 260 259 258 258 258 257 257 257 257 257 256 256 256 256 256 256 256 256 256 256 256 256 256 256 256 257 257 257 258 258 258 258 259 259 259 259 259 259 259 259 260 260 260 261 261 261 261 261 261 260 260 260 261 260 260 260 260 260 260 260 261 261 261 262 263 264
272 272 271 270 269 268 267 267 266 266 265 265 264 263 263 262 261 261 260 259 259 258 258 257 257 256 256 256 256 256 256 256 256 256 256 256 256 256 256 256 256 256 256 256 256 256 257 257 258 258 259 259 259 259 258 259 259 259 259 260 260 261 261 261 261 261 261 260 259 260 260 260 259 259 259 259 259 259 260 260 260 261 261 262 262
271 271 270 269 268 267 267 266 265 265 264 264 263 263 262 262 261 261 260 259 258 258 257 257 257 256 257 256 256 257 256 256 256 256 256 256 256 256 256 256 257 257 257 257 257 257 258 258 259 259 259 259 259 258 258 259 259 259 259 260 260 260 261 261 261 261 259 259 259 259 259 259 259 258 258 258 258 259 259 259 259 260 260 261 261
270 270 269 268 268 267 266 265 265 264 264 263 263 262 262 261 261 260 259 259 258 257 257 257 257 257 257 257 257 257 257 256 256 256 256 256 255 256 256 257 257 258 258 258 258 259 259 259 259 259 259 258 258 258 258 259 259 259 259 259 260 260 260 260 260 259 258 258 258 258 258 258 258 257 257 258 258 258 258 258 258 259 259 260 260
Wind_Speed
15 17 18 19 18 18 18 18 19 20 21 21 21 21 21 19 19 19 18 18 19 19 17 16 16 16 15 14 14 13 11 11 10 10 11 11 12 13 13 13 15 13 13 13 12 12 11 11 11 11 11 11 11 11 11 11 11 11 11 11 12 13 12 11 12 13 15 16 16 17 18 17 18 20 20 19 18 17 16 14 13 12 12 12 12
14 16 17 17 18 17 17 17 18 19 20 20 20 19 19 19 18 17 17 17 18 18 16 15 15 15 14 13 13 12 11 10 10 10 11 11 11 13 13 14 15 14 13 13 12 12 12 11 12 12 12 12 12 12 11 11 11 11 11 12 11 12 12 12 11 12 12 13 13 14 15 15 16 17 17 18 18 17 15 14 13 13 13 12 12
12 14 15 16 17 17 16 16 16 16 17 19 18 17 18 18 17 16 16 15 16 18 17 15 14 13 13 12 11 11 10 9 9 9 9 10 9 11 13 14 14 13 12 12 12 12 12 12 12 13 13 13 13 12 12 11 11 11 11 12 12 12 12 11 10 10 11 13 12 10 9 9 10 10 12 13 14 14 13 14 15 15 14 13 13
10 11 13 14 15 16 16 15 14 14 15 17 17 16 16 17 16 15 15 14 15 19 21 18 15 14 14 12 10 9 9 8 8 8 8 9 10 11 13 13 13 12 11 12 11 10 11 13 13 13 13 13 12 12 12 12 11 11 11 12 12 13 12 11 10 11 11 11 9 7 7 8 6 7 11 12 10 13 15 15 15 14 14 14 14
9 10 11 12 13 14 14 14 13 13 13 15 15 15 14 15 16 16 16 16 18 21 23 22 18 16 15 13 10 9 8 8 8 9 9 10 11 12 13 12 12 10 10 11 10 9 11 13 13 13 13 12 12 11 11 11 11 11 11 12 12 13 13 13 12 11 11 11 9 8 7 6 5 9 13 13 13 15 16 15 14 15 15 15 14
9 9 9 10 11 11 12 12 12 11 11 11 12 15 15 16 18 18 18 19 20 22 23 22 19 15 13 12 11 10 9 8 8 9 10 11 12 13 13 12 11 10 10 11 10 9 11 13 13 12 12 12 12 11 11 11 11 11 12 12 12 13 14 15 14 13 12 12 12 12 12 10 10 12 11 8 11 14 16 16 17 17 16 16 16
7 8 8 8 8 8 9 10 10 10 9 8 11 15 16 17 17 17 18 18 18 19 20 19 16 12 11 9 9 10 9 9 9 9 10 10 11 13 13 12 11 10 10 10 10 9 11 13 13 12 12 12 12 11 11 11 11 12 12 12 13 13 13 13 14 13 13 12 12 14 16 17 17 15 11 8 10 12 14 16 17 18 17 18 18
5 5 6 6 5 6 6 6 7 9 9 7 9 13 15 15 14 13 13 14 15 16 17 16 12 10 10 8 9 9 9 9 10 10 10 10 11 12 12 12 10 10 10 10 10 9 10 12 12 12 12 12 11 11 11 12 12 12 12 12 12 12 12 13 14 13 13 13 13 14 16 17 18 18 17 14 10 9 11 13 16 18 20 20 20
3 2 2 2 2 2 2 2 4 7 9 8 8 10 12 11 10 8 9 11 13 13 13 13 10 9 9 8 9 10 9 9 10 10 10 10 12 12 12 11 10 10 10 10 9 9 10 11 12 11 12 12 11 11 11 12 12 12 12 12 12 12 12 13 13 13 13 14 14 14 15 15 16 17 19 18 14 12 11 10 13 15 17 19 19
2 3 3 3 3 3 2 1 2 4 7 6 5 6 7 7 7 7 7 9 12 11 11 12 10 8 8 8 10 10 10 10 10 10 10 10 12 12 11 11 11 10 10 10 9 9 11 12 12 12 12 12 11 12 12 12 12 12 12 12 13 13 13 12 13 14 14 15 15 15 15 15 15 14 15 17 16 14 13 11 14 15 14 16 18
5 5 6 6 5 5 4 3 2 3 3 4 4 4 5 5 6 7 7 8 10 10 10 10 9 8 8 8 10 10 10 10 10 10 10 11 12 12 12 12 11 11 11 10 10 11 12 13 13 13 12 12 12 12 12 12 13 13 13 13 12 12 13 13 14 14 14 15 15 15 15 15 15 14 14 16 15 13 12 11 14 18 18 18 18
6 6 8 8 7 7 6 5 4 3 2 3 3 3 4 6 7 8 8 7 8 9 8 9 9 8 8 8 9 10 10 10 10 11 10 11 12 12 12 12 12 12 12 11 11 13 14 13 13 13 13 13 13 13 13 13 13 13 13 13 12 12 13 14 14 14 13 14 14 14 15 16 17 17 16 18 17 17 15 11 13 18 18 19 20
7 8 9 9 9 8 7 6 5 3 3 2 4 4 5 7 8 8 9 8 8 9 8 8 9 8 8 9 9 10 10 10 10 10 10 10 12 13 13 13 13 13 13 13 13 14 14 14 14 14 14 14 14 14 14 14 13 13 13 13 13 13 14 14 14 14 14 15 15 15 15 16 17 17 17 18 18 20 19 13 15 19 16 17 21
9 9 9 9 9 8 8 7 5 4 3 2 4 5 5 7 8 8 9 9 8 8 8 8 8 8 9 9 9 10 10 10 10 10 9 10 12 13 13 13 13 13 14 14 14 15 15 15 14 15 15 15 15 15 14 14 14 14 14 14 14 14 14 14 15 15 15 15 15 15 16 16 17 17 17 18 18 19 19 16 16 17 17 19 21
9 9 9 10 10 9 9 8 6 4 3 3 3 5 5 7 9 8 9 9 9 9 8 9 8 8 9 9 9 9 10 10 10 9 9 11 12 13 13 13 13 14 14 14 15 16 15 15 15 15 15 15 15 15 15 14 14 14 14 14 14 14 14 15 15 15 16 16 16 17 17 17 17 17 17 18 18 18 19 20 17 13 13 14 15
9 8 9 11 11 10 10 9 7 5 4 4 3 5 6 7 8 8 9 9 9 9 9 9 9 9 10 9 9 9 10 10 10 10 10 11 12 13 13 13 13 14 14 14 15 15 15 16 16 16 15 15 15 15 15 15 14 15 15 15 15 15 15 15 16 16 16 16 16 16 17 17 16 16 17 18 19 19 19 20 19 16 13 10 10
9 9 10 12 12 12 11 10 8 6 4 4 4 5 6 7 8 8 9 9 9 10 10 9 9 10 10 9 9 9 10 10 11 11 11 11 12 12 13 13 13 13 14 15 15 15 16 16 16 16 16 16 16 15 15 15 15 16 16 16 16 15 16 16 15 15 16 16 16 16 16 17 16 16 17 17 18 19 19 19 20 20 18 12 9
10 11 12 13 13 13 13 11 10 8 6 5 6 6 6 7 7 8 9 9 10 10 10 9 9 10 9 9 9 10 10 10 11 11 11 12 12 12 13 13 13 14 14 15 15 16 16 16 16 16 16 16 16 16 16 16 16 16 16 16 16 16 16 16 15 15 16 16 16 16 16 17 16 16 17 17 17 18 19 19 20 22 22 18 14
9 11 12 14 14 13 14 13 11 10 8 6 7 6 7 7 8 8 9 9 10 10 10 10 10 10 9 10 10 10 11 11 11 12 12 12 13 13 13 13 14 14 14 15 15 16 16 16 16 16 17 17 17 17 17 17 16 17 17 17 16 16 16 17 16 16 17 16 16 17 17 16 16 16 17 17 17 17 18 19 19 20 22 23 22
8 10 12 14 14 14 14 14 12 11 10 7 7 7 8 8 9 9 9 9 10 10 10 10 10 10 10 11 11 11 11 11 11 12 12 13 13 13 13 13 14 14 14 15 15 16 16 16 16 17 17 17 17 17 17 17 17 17 17 17 17 17 18 18 18 18 17 17 17 17 17 17 16 17 17 16 17 17 17 19 20 21 21 22 25
10 10 12 15 16 14 14 15 13 11 10 9 8 8 9 9 9 9 10 10 11 11 11 10 10 10 11 11 11 12 12 12 12 12 13 13 13 13 13 13 14 14 15 15 16 16 16 16 17 17 17 18 18 18 17 17 17 18 18 18 18 18 19 19 19 18 18 17 18 18 18 17 17 18 18 18 18 18 18 19 19 20 22 21 22
12 12 14 17 16 13 15 15 13 12 11 10 9 9 9 9 9 9 10 10 11 11 11 11 11 11 11 11 12 12 12 12 12 12 13 13 13 13 13 13 14 15 14 15 16 16 16 17 17 18 18 18 18 18 18 17 18 19 19 19 19 19 20 20 19 19 19 18 18 19 19 19 19 20 21 20 19 19 18 19 20 19 21 22 21
14 14 16 18 17 14 14 14 13 12 11 10 9 9 9 9 9 9 10 11 11 11 11 11 11 11 12 12 12 12 12 12 13 13 13 12 13 13 13 13 14 14 14 15 16 16 17 17 18 18 18 18 18 18 18 18 19 20 21 20 20 20 20 20 20 20 19 19 20 21 21 21 20 20 21 20 20 20 19 20 21 20 22 23 22
15 16 18 19 19 18 15 13 13 12 11 10 10 9 9 9 8 9 10 11 11 11 11 11 11 12 12 12 12 12 12 13 13 12 13 13 13 13 13 14 14 15 15 16 16 17 17 17 18 18 18 18 19 19 19 19 20 21 21 22 21 21 22 22 22 22 21 21 22 22 22 21 21 21 22 21 20 21 21 21 22 22 22 24 24
15 16 18 19 19 19 18 17 14 12 11 10 10 10 9 9 9 9 10 11 11 11 11 11 11 12 12 12 12 12 12 13 13 13 13 13 13 13 13 14 14 15 16 16 17 17 17 17 18 18 19 19 20 20 20 21 22 22 22 23 23 23 23 23 23 23 22 22 22 23 23 21 21 22 23 23 23 23 23 23 23 24 23 24 25
17 17 17 17 18 18 19 19 16 13 11 11 10 10 10 9 10 10 11 11 11 11 11 11 11 11 12 12 12 12 12 12 13 13 13 13 13 13 14 14 14 15 16 17 17 17 17 18 19 19 20 20 20 20 21 22 23 23 23 23 23 23 23 23 23 22 22 23 23 24 25 23 23 25 25 26 27 26 26 26 26 26 26 25 26
17 17 17 16 17 18 20 20 17 14 11 11 11 10 10 10 11 11 11 11 11 11 11 11 11 12 12 12 12 12 12 12 13 13 13 13 14 14 14 14 15 16 17 17 17 18 18 18 19 19 20 20 20 21 21 22 23 22 21 21 21 22 23 23 23 23 23 25 26 27 28 29 29 30 31 32 31 29 28 27 28 29 28 27 27
17 17 18 18 17 18 20 20 18 15 13 12 12 11 11 11 12 12 11 11 11 11 11 11 12 12 12 12 12 12 12 13 13 13 13 13 14 14 14 15 15 16 16 17 18 18 19 19 20 21 21 20 20 20 21 22 22 21 21 21 22 22 23 25 26 28 30 30 31 33 34 36 36 37 38 38 37 34 31 29 29 28 28 28 27
19 18 18 18 17 17 18 19 18 16 13 13 12 12 12 12 12 12 12 12 11 12 12 12 12 13 13 12 12 12 12 13 13 13 13 14 14 14 14 15 16 16 18 19 19 19 20 21 21 21 20 20 19 21 23 23 22 22 23 25 27 28 30 32 34 37 37 36 37 37 38 40 41 42 43 43 43 42 39 37 36 32 28 27 27
19 18 18 17 17 18 19 19 17 15 14 13 13 13 13 13 13 12 12 12 12 12 12 12 13 13 13 13 13 13 13 13 13 13 13 14 14 14 15 16 16 18 19 18 18 18 18 18 19 20 22 23 24 27 29 27 25 26 27 29 31 32 32 33 34 34 34 35 37 39 40 42 43 43 44 44 45 44 43 42 43 40 34 28 26
19 19 18 17 16 18 19 18 16 15 14 13 13 13 13 13 13 13 12 12 12 12 13 13 13 14 13 13 13 13 13 13 13 13 13 14 14 15 16 16 16 18 18 16 15 16 17 20 23 25 26 27 30 32 31 28 28 29 30 31 30 29 29 30 30 31 31 33 34 35 36 39 41 41 41 42 43 44 44 44 44 44 41 35 30
19 18 17 16 16 17 20 18 16 14 13 13 13 13 13 13 13 13 12 12 12 13 13 13 14 14 13 13 13 13 13 13 13 13 13 14 15 15 16 15 15 15 15 16 18 20 22 25 26 27 28 30 32 32 30 28 29 30 31 32 31 29 29 29 30 31 32 32 32 33 34 35 36 38 39 39 40 40 42 43 43 43 44 42 40
18 18 17 17 17 19 20 17 14 13 13 13 13 13 14 14 13 12 12 12 13 13 13 14 14 14 13 13 13 13 13 13 13 13 14 14 15 15 14 13 14 15 17 21 24 25 26 26 26 28 30 31 32 32 30 28 30 31 31 33 33 32 30 29 29 29 30 31 31 32 32 31 32 35 37 35 35 36 39 42 43 43 42 42 43
17 17 17 18 19 20 19 18 16 13 12 12 12 13 14 13 13 13 13 13 13 13 13 14 14 14 14 13 12 13 13 13 13 13 14 14 14 13 13 14 16 17 19 23 25 25 25 25 25 28 31 32 33 32 30 29 31 32 32 33 33 31 28 27 27 27 28 29 29 29 30 30 32 33 31 30 32 35 37 40 43 43 42 42 41
17 17 18 19 20 19 19 20 19 14 11 11 12 13 13 13 13 13 13 13 13 13 14 14 14 14 13 13 13 13 13 13 13 13 14 14 13 13 14 15 15 16 18 20 22 22 24 26 26 28 30 32 33 32 29 29 31 32 31 32 30 28 26 25 25 26 27 28 29 29 29 31 32 31 29 31 35 37 36 36 40 42 41 42 41
19 20 21 21 21 20 20 19 16 12 11 12 12 13 13 13 13 13 13 13 13 14 14 14 14 14 13 13 13 13 13 13 13 13 13 14 14 15 17 16 16 17 18 20 22 23 24 26 27 27 28 32 34 32 29 29 31 32 32 30 27 25 25 25 25 26 27 28 28 28 30 31 30 29 30 34 38 39 36 33 35 37 39 41 41
23 24 24 24 22 19 17 15 13 12 12 12 13 13 13 14 13 13 13 13 13 14 14 14 14 14 13 13 13 13 13 13 12 12 13 14 15 18 19 18 17 18 18 20 23 23 22 24 25 27 28 31 34 33 29 29 31 31 31 29 25 24 24 23 24 25 26 26 27 28 30 30 28 29 32 36 39 39 36 32 30 32 37 40 41
24 25 24 23 19 14 12 13 13 13 13 13 13 13 13 14 14 13 13 14 14 15 14 14 14 14 13 13 13 13 13 12 13 14 14 15 17 19 20 19 18 18 20 22 22 21 19 20 23 26 27 28 32 33 29 29 30 28 29 28 25 23 23 23 24 24 24 26 27 28 28 27 27 29 33 36 39 40 36 32 31 31 31 34 35
23 23 22 21 17 12 11 12 12 13 13 13 13 14 14 14 14 14 14 14 15 15 14 14 14 14 14 14 13 13 13 13 14 15 16 19 21 21 21 19 17 18 19 19 17 17 17 18 22 27 28 27 31 32 29 28 29 28 29 28 24 21 21 22 23 24 25 26 26 25 25 24 26 29 33 36 39 42 38 32 31 31 27 29 32
21 20 19 17 14 11 11 12 14 14 13 12 13 14 14 15 14 14 14 15 16 15 14 14 14 14 14 14 14 13 13 14 16 17 19 22 22 21 20 19 17 18 17 17 17 17 19 22 26 29 29 27 29 30 28 27 28 28 29 27 23 21 21 22 23 25 26 25 23 23 23 24 26 30 34 37 39 41 40 35 32 30 26 29 34
21 18 16 14 13 12 12 13 14 13 12 11 12 13 14 15 14 14 16 16 15 14 13 13 14 14 14 15 14 12 13 15 18 19 21 22 22 22 22 20 19 18 18 19 22 21 22 25 28 27 27 26 26 27 26 25 26 28 28 27 24 22 22 24 25 26 25 23 22 23 23 24 27 32 35 37 39 40 39 35 32 31 32 34 34
21 18 15 14 15 14 14 14 14 13 12 11 12 14 15 14 14 16 17 15 13 13 14 14 15 15 15 14 13 13 15 19 21 21 21 21 22 22 22 22 20 19 19 23 26 25 24 25 25 24 24 24 23 23 23 23 24 26 28 28 26 24 24 26 26 25 23 22 23 24 23 25 30 35 37 37 38 38 36 33 31 33 39 40 31
19 18 17 14 15 16 15 15 14 12 12 11 12 14 14 14 15 17 16 14 13 13 13 13 14 14 14 14 15 18 20 22 22 21 20 21 22 22 22 21 19 18 19 21 23 23 22 21 21 20 19 20 21 21 21 22 23 25 27 28 27 26 27 27 26 25 24 24 24 24 24 27 33 37 37 36 35 34 31 30 32 34 37 38 31
19 20 20 18 18 18 17 16 14 12 12 11 13 14 14 14 16 17 14 13 12 11 11 12 13 14 15 17 19 21 22 22 22 21 20 20 22 21 20 20 17 15 16 16 17 17 17 18 18 18 18 19 20 21 21 21 22 24 26 26 26 27 29 29 27 25 24 25 25 24 27 32 37 37 35 33 32 30 28 27 30 32 31 30 26
22 20 19 18 18 18 17 16 15 13 12 12 13 14 14 16 18 17 14 12 12 12 13 14 15 15 17 19 20 21 23 23 22 21 19 19 18 17 17 15 14 13 14 15 16 16 16 17 17 18 18 19 19 21 22 22 21 23 23 23 25 27 29 29 27 25 26 26 26 27 31 35 35 32 31 29 27 25 25 25 26 27 26 23 21
19 19 19 19 18 17 16 16 15 14 14 14 13 14 15 17 17 14 12 11 12 15 17 17 18 18 19 21 22 21 21 21 20 18 18 17 16 14 13 12 12 13 14 15 16 16 16 16 17 17 19 20 20 22 22 21 21 21 21 21 24 27 29 27 25 25 26 25 24 27 31 32 29 27 26 25 24 23 22 22 22 23 23 21 20
18 19 19 18 16 16 16 15 15 14 14 14 14 14 16 16 13 11 11 12 14 17 18 18 19 19 18 18 18 18 18 16 15 14 14 14 13 13 13 13 13 13 13 14 15 16 16 16 16 17 19 20 21 21 21 21 21 20 20 20 23 27 27 24 23 24 22 20 21 26 28 26 24 23 22 21 21 20 19 19 20 22 22 21 20
20 20 18 16 15 15 14 15 15 14 12 13 13 13 14 13 10 11 13 14 16 17 18 19 19 17 16 15 16 17 17 14 12 12 12 13 14 14 15 16 16 15 15 15 16 16 17 17 17 18 19 20 21 20 20 20 21 22 23 23 24 26 25 22 23 25 21 19 22 25 23 20 18 18 18 18 18 17 17 17 19 21 21 20 21
20 19 17 14 14 15 15 15 15 13 11 12 11 11 11 11 11 12 13 14 17 18 18 19 18 16 16 15 15 16 15 12 11 11 12 13 15 16 17 19 21 20 19 19 19 19 19 19 19 19 20 21 20 19 20 23 26 27 27 26 26 26 25 23 25 26 22 19 20 19 16 15 15 15 16 17 17 17 18 17 18 20 20 20 20
19 18 16 13 13 14 15 14 13 12 11 11 10 11 13 13 14 14 14 16 17 17 16 17 16 14 14 13 13 13 12 11 11 12 12 13 16 17 19 22 25 24 22 22 24 26 26 25 23 20 19 18 19 21 24 27 30 31 29 26 26 26 26 25 26 23 19 17 17 15 13 13 14 14 15 16 17 18 18 18 19 19 19 19 19
21 18 15 13 13 13 14 14 12 11 10 10 11 14 15 15 15 15 15 16 17 16 14 13 11 12 12 11 11 11 11 10 11 11 12 13 15 16 18 20 23 23 22 23 26 28 28 26 23 20 18 17 19 23 25 26 29 29 27 25 25 25 25 24 23 19 15 14 13 12 12 12 13 13 14 15 16 17 17 18 19 18 18 18 18
Wind_Direction
75 69 63 61 58 57 56 54 53 50 46 42 42 40 36 34 32 31 28 25 24 21 17 15 11 7 3 1 359 354 353 357 358 0 3 0 360 4 5 359 358 359 356 356 355 353 350 346 345 344 345 342 335 331 325 323 322 318 317 313 309 306 302 300 301 302 298 296 295 293 291 287 281 274 269 263 257 260 263 256 252 248 246 245 240
77 69 63 59 55 54 53 50 48 47 42 39 38 37 34 32 31 29 25 24 24 21 16 12 9 6 360 355 352 349 348 352 352 351 355 355 356 1 360 355 355 356 355 355 355 354 353 352 351 347 345 341 334 329 325 325 326 327 327 323 316 311 306 304 306 305 300 303 308 305 299 291 281 276 272 262 249 252 259 250 244 244 246 249 245
76 68 63 58 54 51 49 47 46 45 42 37 35 34 32 30 28 25 23 23 21 18 16 11 6 4 359 352 346 344 342 344 346 343 348 352 353 355 355 353 352 353 353 354 353 354 356 353 349 343 341 338 333 329 327 328 328 330 331 326 321 314 306 304 309 310 308 310 309 302 305 308 301 290 285 267 240 238 252 247 244 249 252 249 243
75 68 62 58 53 50 47 43 42 42 39 35 31 29 28 26 25 23 20 20 16 12 13 10 4 0 359 357 348 341 337 336 339 341 345 349 348 348 349 350 350 349 351 352 351 353 356 352 345 340 337 335 332 329 327 327 326 327 329 327 323 317 311 308 309 310 308 309 305 302 311 307 295 305 317 308 273 255 256 250 247 254 256 248 239
72 67 61 57 54 50 46 42 39 38 36 32 28 26 24 21 20 20 17 15 11 6 7 7 5 1 359 360 354 347 344 340 341 342 343 343 342 342 343 345 346 346 348 350 349 351 353 351 347 343 339 337 334 329 326 324 325 329 331 329 324 318 313 309 307 305 301 296 291 293 303 292 290 321 326 314 293 279 273 264 256 256 253 248 245
70 66 63 58 56 52 46 41 37 35 32 25 21 22 22 18 16 17 14 11 7 3 3 4 4 2 359 357 352 345 341 340 341 338 336 335 335 337 337 339 341 341 345 348 347 345 347 350 349 346 341 339 336 331 327 327 329 332 332 328 323 318 313 308 304 304 299 290 281 274 274 274 286 307 311 299 292 286 282 278 270 263 254 248 250
72 66 62 56 53 51 44 39 35 31 25 14 11 15 17 15 13 12 10 8 5 1 0 2 3 1 356 351 344 337 329 329 331 329 328 328 329 332 334 335 337 338 339 344 345 340 342 346 347 345 341 339 336 332 330 330 330 329 328 325 321 318 314 309 305 307 303 293 285 277 274 273 275 282 284 289 297 287 280 279 276 272 265 260 258
72 65 61 55 51 51 44 37 30 27 24 12 6 10 12 11 8 6 5 6 3 359 359 1 0 355 349 343 337 330 322 320 321 323 324 325 328 330 331 331 332 334 335 338 340 338 339 342 342 341 339 337 336 332 329 328 326 324 325 324 321 318 315 310 306 305 301 294 292 286 280 278 274 273 273 275 285 290 286 280 276 275 272 268 264
74 83 89 88 85 80 64 28 12 18 22 13 1 4 5 4 0 358 0 2 359 357 358 359 357 351 344 338 333 326 319 317 317 319 322 324 327 328 328 328 327 329 330 331 333 335 337 337 337 336 335 334 333 329 326 324 323 322 323 323 320 317 313 307 302 299 296 295 296 293 287 284 279 275 273 270 270 277 284 285 282 282 277 272 269
152 172 179 182 183 181 191 255 327 353 8 4 349 349 352 350 350 352 355 356 354 353 354 355 354 348 341 334 329 323 318 317 316 317 320 324 326 326 327 326 324 325 327 329 330 333 335 335 334 333 333 332 329 327 326 324 323 321 319 317 315 312 309 304 300 296 294 292 292 292 288 285 281 276 272 269 267 268 274 282 285 284 281 277 273
197 197 203 205 206 203 209 230 260 300 336 339 324 325 337 340 344 348 349 350 350 349 349 353 352 345 339 332 326 321 318 316 315 316 320 325 326 325 326 325 323 324 326 327 329 331 333 333 332 331 330 329 327 325 324 322 320 317 314 312 308 306 304 302 298 293 291 288 285 283 281 279 278 276 273 273 272 271 274 280 282 283 284 282 278
204 210 214 214 218 216 220 233 239 252 282 315 325 321 334 341 340 343 343 341 345 344 342 347 347 340 336 331 325 320 316 313 312 315 319 325 326 325 325 325 323 324 325 326 326 330 332 331 330 329 328 326 323 322 319 317 316 312 308 305 302 299 298 297 293 290 288 287 284 281 279 279 278 278 279 279 278 278 280 280 283 286 285 281 281
216 220 220 218 221 221 229 239 233 237 260 306 339 336 337 342 338 335 334 330 332 336 333 335 338 336 333 329 325 321 316 311 309 312 316 323 325 324 323 323 322 322 324 324 325 327 328 327 326 325 322 320 318 316 313 312 310 307 304 301 298 295 293 292 289 287 285 283 282 281 280 280 279 279 281 281 281 282 282 280 283 284 282 283 285
222 221 219 218 220 223 231 237 228 235 264 296 340 340 334 337 333 326 324 320 320 324 323 323 327 330 330 327 323 321 317 311 307 308 313 321 322 320 319 319 318 319 320 321 321 323 322 320 320 318 315 314 313 312 309 307 306 303 300 298 295 292 290 289 287 286 284 280 278 279 278 278 278 280 280 279 279 279 278 279 285 284 279 282 284
227 223 221 220 222 230 232 227 223 237 265 274 320 334 327 329 327 318 316 314 311 313 315 316 317 321 326 323 319 319 316 310 304 301 308 316 318 316 314 313 313 314 315 315 316 317 317 315 314 312 311 310 309 308 306 304 302 299 297 294 292 291 289 287 285 285 284 280 277 276 276 276 276 277 278 277 278 277 276 278 281 284 282 280 282
232 224 224 224 225 233 231 223 221 232 255 260 285 318 315 316 317 309 308 310 306 306 308 309 309 313 319 318 315 315 314 309 302 295 301 310 311 310 308 308 309 309 310 311 312 313 312 311 310 308 308 307 305 304 302 300 299 296 295 291 289 288 287 285 285 284 282 281 278 276 275 275 275 276 277 277 278 278 280 280 278 279 282 283 281
240 229 227 228 227 230 229 222 220 225 244 258 265 295 300 300 307 304 303 305 304 303 303 302 303 305 309 310 310 310 309 306 301 295 297 303 305 305 305 305 305 306 308 308 308 309 308 308 307 306 306 305 303 302 298 297 296 294 292 289 288 287 285 283 283 282 282 281 279 277 276 276 276 277 277 277 279 280 282 283 281 278 278 281 284
252 239 233 231 229 232 230 222 220 222 234 255 259 278 288 285 295 300 297 299 301 300 298 297 298 299 301 302 304 306 305 303 301 298 297 300 301 302 303 303 304 304 305 305 306 306 305 305 305 304 304 303 302 301 299 297 296 293 291 289 287 287 285 283 282 281 281 280 279 277 276 276 276 277 277 277 278 279 280 280 280 278 276 274 277
254 246 239 233 231 235 230 220 220 221 225 246 256 263 276 278 286 291 287 289 294 295 293 292 293 292 293 297 300 302 302 300 300 298 297 297 298 299 299 300 301 302 302 303 303 303 302 302 302 301 301 301 300 300 299 298 296 293 292 290 288 287 285 284 284 282 281 279 278 277 276 275 276 277 277 277 277 278 279 279 278 276 274 272 272
251 250 243 237 240 242 231 219 219 223 226 240 253 260 272 280 285 285 279 280 286 289 288 286 287 286 288 292 295 296 297 296 295 294 294 294 295 296 296 297 299 300 300 300 299 299 299 299 298 299 299 298 298 298 297 296 295 292 290 288 288 287 285 284 284 282 279 278 277 277 276 275 276 277 277 278 278 277 278 278 278 276 274 273 271
259 261 256 254 253 242 225 219 220 224 228 237 250 263 272 276 283 286 280 276 279 282 282 282 282 283 286 288 289 291 291 290 288 288 289 290 291 292 293 296 297 297 298 298 298 298 298 297 298 297 296 296 296 296 294 293 292 290 288 287 287 286 284 283 282 281 278 277 277 277 276 275 275 276 276 276 276 276 276 276 275 275 273 272 271
266 272 276 275 265 234 214 217 221 223 229 238 250 260 265 270 279 284 279 272 273 277 278 278 278 278 281 283 285 286 285 283 284 285 285 286 287 290 292 294 295 296 296 296 296 297 296 297 297 295 294 294 294 295 294 292 291 289 288 287 286 285 283 281 280 279 277 276 275 276 276 275 275 274 273 271 270 270 271 270 270 271 272 271 271
272 279 284 281 272 252 230 221 222 229 236 241 249 256 259 266 276 281 276 268 269 272 273 274 273 275 279 281 282 282 280 280 281 281 282 283 286 289 291 292 293 294 295 294 296 297 296 296 296 295 295 294 294 294 293 291 289 288 287 285 284 283 282 280 279 278 276 275 274 274 274 273 272 269 267 265 264 265 265 265 266 265 267 269 268
277 283 285 279 272 265 256 242 232 233 239 241 249 257 261 268 275 278 274 268 268 269 269 270 271 274 277 278 279 279 278 279 280 281 282 284 287 290 291 292 294 295 296 296 297 297 297 297 296 296 296 294 294 293 291 290 287 286 285 284 284 281 279 279 277 276 275 274 272 270 268 268 266 265 265 263 262 262 261 261 263 263 262 265 265
281 284 286 281 273 264 262 262 252 238 238 245 253 260 265 272 278 278 273 268 267 267 267 268 270 274 276 276 278 279 278 279 280 282 284 285 289 291 292 294 295 296 297 297 297 297 296 295 294 294 295 293 292 290 289 287 284 283 282 281 281 279 276 275 273 272 271 269 268 266 265 264 262 262 262 260 259 257 257 258 260 260 259 260 262
282 285 286 285 278 265 262 266 260 245 242 250 257 264 271 277 278 275 270 267 267 266 266 267 269 273 276 276 278 279 279 280 282 284 286 288 291 292 293 295 296 297 297 295 294 293 292 292 291 291 291 290 289 287 286 285 282 280 279 277 276 274 273 271 270 270 269 268 266 264 264 262 259 259 258 258 259 257 256 256 257 257 257 258 259
283 286 287 286 280 268 263 265 260 248 247 255 261 267 273 277 274 271 268 267 267 266 266 267 270 274 275 276 278 279 279 282 283 285 287 289 291 292 292 293 294 294 293 292 293 292 291 291 289 288 289 287 287 286 284 281 279 277 274 273 272 272 272 271 269 268 267 267 266 264 265 266 265 263 263 263 263 259 253 253 254 254 255 256 256
281 285 287 286 282 271 264 263 259 250 251 260 266 269 270 270 269 267 264 263 264 265 265 267 271 274 275 276 279 280 281 283 284 285 286 288 290 290 290 291 292 291 290 290 291 291 291 290 288 288 288 287 285 284 282 280 279 276 272 271 271 271 271 271 272 274 274 273 272 271 271 272 271 270 269 268 267 262 255 252 252 250 248 251 252
282 286 287 285 284 277 267 263 259 253 255 264 268 269 268 266 264 263 261 262 263 263 264 267 269 271 274 277 278 278 280 281 281 283 285 287 289 289 289 291 290 290 290 290 290 291 290 289 289 288 289 288 285 286 289 287 281 277 275 275 276 277 277 277 278 280 280 278 277 275 275 276 276 276 277 275 272 269 262 256 257 254 245 244 249
285 287 289 286 282 278 273 266 256 250 257 266 268 268 267 264 262 261 260 261 262 261 262 264 268 270 273 275 276 276 277 277 278 280 282 285 287 289 290 290 290 291 291 290 289 290 288 288 290 292 293 293 292 295 298 293 282 278 279 279 279 279 279 279 278 278 279 278 278 277 276 279 281 281 280 279 275 271 265 257 257 256 248 242 244
286 288 289 287 280 277 274 264 252 252 261 264 265 266 264 261 260 259 260 261 260 260 262 263 267 270 271 272 273 273 274 275 276 278 281 285 287 288 289 288 287 289 290 287 286 288 290 293 297 298 296 295 297 301 301 293 285 283 282 280 280 279 279 278 276 275 274 273 274 274 274 276 278 278 278 278 276 274 268 260 256 254 251 245 239
286 288 287 285 281 277 272 262 254 258 263 262 264 265 261 258 257 256 258 260 258 259 262 264 267 268 268 270 271 271 273 274 275 277 282 286 288 288 287 285 285 287 287 289 291 293 296 299 299 297 296 296 298 301 299 292 288 287 286 285 284 284 283 280 278 276 275 275 276 277 276 273 273 275 276 276 276 277 274 268 262 259 258 255 249
285 287 287 285 283 278 272 266 261 259 258 259 262 261 258 256 256 257 258 258 257 259 261 263 265 266 267 268 269 270 272 273 274 277 282 285 286 284 282 283 287 289 292 296 299 300 299 298 295 294 296 297 298 302 301 294 290 290 291 293 291 290 288 284 281 281 282 283 283 284 284 280 277 280 280 278 278 280 279 275 270 266 263 260 258
284 287 287 283 280 276 272 271 270 262 256 257 257 256 256 254 253 256 257 256 257 258 260 262 263 264 265 266 267 269 271 272 274 278 282 283 282 279 281 287 290 291 293 296 299 299 297 296 293 294 297 297 298 303 302 295 292 293 295 298 298 296 292 287 285 285 284 285 285 286 287 286 285 287 288 287 286 285 282 276 271 270 267 262 259
286 289 286 279 276 274 272 273 272 263 253 253 254 253 252 250 250 252 252 252 256 257 258 260 262 262 263 264 267 268 268 272 276 278 280 280 278 279 286 290 289 288 289 292 293 293 293 295 295 296 298 297 298 303 301 295 296 298 300 302 302 298 293 290 288 286 285 285 286 286 286 286 288 291 295 297 294 290 286 275 264 263 264 262 259
288 288 283 277 275 276 274 272 265 255 248 249 251 250 248 248 249 250 251 252 254 256 257 259 260 259 260 263 264 265 268 271 273 274 276 278 280 286 291 292 290 288 288 288 291 292 293 296 298 298 296 295 298 304 303 297 298 301 302 303 302 297 294 292 289 287 287 286 285 286 286 288 292 296 298 298 295 293 294 283 264 255 254 257 259
285 284 280 276 275 273 267 261 251 246 246 248 251 248 245 248 248 248 251 251 252 255 256 256 257 258 260 262 261 263 266 267 268 269 271 274 279 286 291 292 289 286 284 286 290 292 292 294 296 297 295 294 298 305 307 301 299 302 303 302 302 298 296 293 291 290 290 288 286 286 289 292 297 299 298 297 297 299 302 298 284 266 253 250 254
283 284 281 276 269 257 246 246 246 244 245 248 250 246 242 246 247 247 249 250 251 254 254 255 257 258 260 261 259 261 263 264 265 265 268 276 282 286 289 290 286 283 285 289 290 288 286 288 292 295 294 291 294 302 306 301 301 307 308 305 304 301 297 296 296 294 292 290 289 290 293 296 298 299 299 299 301 305 307 306 302 287 262 245 246
283 282 280 273 263 248 238 240 241 244 248 249 248 244 241 243 246 247 249 249 250 252 253 256 259 259 260 259 258 260 261 261 264 266 272 282 288 289 290 288 283 281 285 287 285 282 280 283 290 296 297 293 293 301 307 303 302 309 310 308 307 304 301 300 299 298 296 295 295 296 297 296 297 301 304 304 304 307 309 311 311 300 271 246 247
286 286 284 271 255 241 237 239 241 247 253 253 247 243 240 241 244 247 247 248 248 250 254 258 259 259 259 259 259 259 257 258 264 271 279 286 289 290 289 285 280 280 282 281 281 279 279 285 294 299 300 296 294 299 305 302 301 306 311 311 311 309 305 304 302 301 300 299 301 302 298 297 301 305 307 306 305 307 312 316 316 306 280 256 254
290 294 289 268 252 244 239 240 247 251 254 252 247 243 241 241 243 245 247 249 250 252 255 258 259 258 258 260 260 256 255 262 270 277 282 286 289 290 289 286 282 281 281 281 283 282 281 287 296 299 297 296 295 295 297 297 299 305 310 312 313 310 306 305 305 304 304 305 305 303 298 298 304 307 307 307 307 308 314 318 315 306 297 285 264
290 292 285 262 255 256 250 247 250 252 252 249 243 241 242 240 241 247 250 252 252 254 258 260 259 258 257 257 256 256 262 271 278 282 284 286 289 289 289 287 283 281 282 285 288 288 285 287 293 294 292 293 293 290 289 292 297 303 308 312 313 311 310 311 311 309 308 308 305 302 299 300 305 307 308 307 308 311 315 316 312 308 310 309 286
289 289 288 274 261 260 259 258 256 251 250 248 242 243 241 237 243 252 255 254 253 255 257 258 257 255 254 253 258 266 273 279 284 286 284 284 287 288 288 287 282 279 281 284 286 287 285 283 285 287 286 288 291 291 291 293 296 301 307 312 313 313 316 318 317 312 309 307 303 300 298 301 306 308 309 308 310 312 314 314 314 313 314 316 306
290 288 290 287 273 264 264 267 265 256 251 245 241 243 240 237 249 259 258 253 254 254 253 256 256 253 255 259 265 272 278 281 285 286 283 282 284 286 286 284 278 272 273 276 278 280 281 281 284 287 289 290 293 295 296 296 297 300 305 310 312 316 320 320 315 309 306 304 300 298 300 306 310 311 310 309 309 310 312 314 318 319 316 315 314
290 288 291 289 277 266 263 268 267 260 254 247 242 239 238 244 257 265 260 253 252 253 255 257 257 256 259 265 270 275 279 282 285 284 279 277 278 278 277 276 271 266 267 273 277 278 278 281 285 288 291 293 295 297 298 299 300 302 304 307 312 317 318 316 310 305 304 301 299 300 305 309 311 310 309 309 306 307 314 319 323 325 323 320 321
293 294 296 290 278 268 266 270 270 265 261 256 246 237 241 254 264 265 257 251 253 256 260 262 262 263 266 270 273 276 278 282 284 282 277 274 271 267 265 265 263 262 265 271 278 278 277 280 284 287 290 293 296 297 298 298 301 304 303 305 311 315 314 311 307 305 305 302 301 304 307 307 307 307 306 306 304 305 315 326 332 332 329 327 329
298 300 298 290 277 269 269 271 270 268 267 263 252 245 252 261 264 259 255 255 255 258 262 265 265 266 268 268 268 270 272 275 277 274 270 268 264 260 261 262 261 262 266 270 276 277 275 276 282 287 291 294 295 294 295 298 301 304 303 306 310 312 312 310 309 309 308 306 305 307 306 303 304 306 306 305 306 310 319 331 337 334 331 330 332
299 299 296 286 274 271 272 274 273 270 269 266 258 253 258 264 264 264 263 262 261 261 263 265 266 266 264 261 262 266 269 268 267 262 259 261 262 260 260 260 258 259 263 268 272 272 271 274 280 285 290 294 293 291 291 294 295 297 302 307 309 310 310 311 311 311 311 312 310 307 305 305 308 311 313 313 313 318 326 333 336 333 331 333 337
303 303 297 286 277 275 277 278 277 274 272 269 263 260 265 271 275 275 269 265 265 267 268 269 268 263 259 259 261 264 265 263 262 260 258 261 265 264 263 267 270 270 269 268 267 265 265 270 276 282 288 292 291 287 288 291 293 297 303 308 308 309 311 311 311 313 316 315 311 307 306 310 315 317 319 320 322 326 331 336 338 335 333 336 342
309 306 298 289 283 281 281 280 279 278 275 271 269 272 276 280 284 282 276 272 272 270 269 270 266 258 256 257 258 259 259 258 261 264 264 267 271 270 267 270 276 278 274 268 266 267 270 273 278 283 286 285 285 288 291 294 296 300 306 309 310 311 312 311 312 317 320 314 309 307 308 313 318 319 321 324 327 331 334 336 337 336 335 338 340
309 304 297 291 287 285 285 284 281 280 278 274 277 282 284 286 288 286 281 279 277 271 265 265 261 257 258 259 255 256 259 260 263 267 268 271 276 277 275 274 276 277 276 273 274 277 280 282 284 287 287 285 286 290 293 296 299 304 308 312 313 312 312 313 317 322 321 311 307 309 311 315 318 320 322 325 327 330 333 334 335 334 334 337 339